GFSMA_sfc_temp_069.txt.gz
Temp
75 76 73 72 73 73 75 73 73 75 74 76 82 85 84 81 78 77 74 81 81 82 82 82 81 81 81 81 81 81 81 81 80 80 80 80 79 79 79 79 79 79 79
77 74 75 75 72 73 78 74 75 76 76 79 79 81 82 79 78 76 75 76 80 81 82 82 82 82 81 81 81 81 81 80 80 80 80 80 79 79 79 79 79 79 78
76 76 73 77 73 76 78 77 77 79 78 78 79 81 79 81 79 79 77 75 77 81 82 82 81 81 82 82 81 81 81 80 80 80 80 80 79 79 79 79 79 78 78
77 75 74 76 77 76 78 76 78 76 79 75 78 81 77 79 80 79 78 77 76 79 80 81 81 81 82 82 82 81 81 80 80 80 79 79 79 79 79 79 78 78 77
78 75 73 73 76 75 77 79 76 79 77 76 79 78 76 79 81 82 79 78 76 77 76 80 80 80 82 82 82 81 81 80 80 79 79 79 79 79 79 78 78 77 77
77 75 74 75 77 75 73 75 78 75 74 80 83 81 77 76 76 76 77 81 78 78 77 76 75 77 80 82 82 82 81 81 80 79 79 79 78 78 78 77 77 77 77
76 73 74 75 74 76 73 77 75 75 78 78 77 73 73 76 75 77 77 78 78 80 78 76 74 75 77 80 80 80 81 81 81 80 79 79 78 78 77 77 77 77 76
77 77 75 75 75 75 74 73 74 73 71 73 71 73 68 72 75 78 77 80 78 80 79 79 77 76 75 75 76 80 80 80 81 81 80 79 78 77 77 76 76 76 76
80 78 76 76 75 74 74 75 76 75 73 73 77 72 66 69 69 73 76 77 77 76 78 80 80 78 76 75 77 78 79 78 80 81 80 79 77 77 77 76 75 75 75
81 80 78 77 76 74 74 76 78 74 72 71 73 79 73 72 68 68 73 75 78 79 78 76 79 80 79 75 78 77 78 77 78 80 80 80 78 78 78 77 76 75 75
80 82 79 78 76 74 74 76 76 75 76 72 72 71 72 72 75 70 71 71 74 76 77 77 78 77 79 78 75 77 77 77 77 78 79 79 79 79 79 79 78 77 77
79 80 80 78 76 76 76 76 77 77 75 74 74 73 72 75 72 75 71 72 71 75 76 78 77 78 78 77 81 80 78 77 76 76 76 77 78 79 80 80 80 79 79
77 78 78 77 77 77 77 77 76 76 76 75 75 73 73 74 75 74 77 74 71 73 74 76 78 77 82 78 79 80 78 75 74 73 74 75 76 77 78 79 80 80 80
81 79 78 78 78 78 78 76 76 76 76 75 76 74 74 75 75 75 77 73 69 70 72 75 77 79 79 78 81 79 77 73 73 72 71 72 73 74 75 76 77 77 78
81 80 80 79 79 78 78 76 75 75 76 75 75 75 74 75 75 75 75 75 72 67 68 75 76 79 79 79 80 77 76 75 73 72 71 71 71 72 73 74 74 74 75
80 78 81 81 79 78 77 76 75 76 75 75 76 75 74 74 74 76 75 75 73 71 68 72 76 77 80 83 81 78 79 77 74 72 71 70 70 71 72 72 72 72 73
78 80 79 78 78 78 78 76 76 76 75 75 75 75 76 76 74 75 76 74 73 72 71 73 75 76 77 78 80 78 79 79 78 72 71 70 70 70 70 71 70 71 71
77 79 81 81 79 78 78 77 77 79 76 76 76 75 76 80 75 75 75 75 74 75 73 71 72 75 76 78 78 78 82 86 82 80 73 72 70 68 68 68 68 68 68
79 79 79 79 79 78 77 77 77 77 77 77 77 76 76 76 75 75 74 74 74 76 73 71 71 74 76 76 77 77 77 78 82 79 74 72 71 70 68 67 65 64 63
77 77 78 78 78 78 78 78 77 77 77 77 78 78 78 77 76 76 76 75 75 74 73 72 72 72 73 79 75 75 74 75 76 84 81 78 75 74 70 67 66 65 63
82 80 76 77 79 80 82 77 78 78 78 77 77 78 78 78 76 76 78 75 75 73 73 73 72 72 72 73 71 73 72 72 78 78 81 80 79 84 84 77 72 70 65
79 81 81 80 78 83 76 73 78 79 77 79 78 77 78 77 76 73 72 73 76 75 73 72 72 71 71 71 72 71 74 73 70 77 74 79 79 81 82 80 75 69 67
81 79 79 80 79 81 71 71 73 82 80 78 79 79 79 85 76 78 73 71 71 70 72 79 75 75 75 76 74 72 73 73 74 80 75 76 82 79 81 80 71 69 69
80 81 80 80 80 81 70 69 71 80 81 81 78 79 79 80 78 77 79 79 77 78 77 75 74 79 79 78 75 78 76 75 76 79 75 73 78 75 76 77 73 70 65
80 81 81 80 79 80 68 67 68 74 79 79 80 80 79 79 73 69 75 74 74 75 75 68 69 70 70 69 72 73 73 72 73 75 76 73 73 73 73 74 74 67 64
82 81 81 82 77 80 68 65 67 80 76 78 78 75 69 75 68 67 77 79 76 77 75 76 74 70 66 71 67 71 75 70 70 71 75 73 72 72 71 71 71 68 66

GFSMA_sfc_temp_072.txt.gz
Temp
71 73 71 72 72 73 73 72 73 73 73 77 79 79 79 76 74 74 73 81 81 81 82 82 81 81 81 81 81 80 80 80 80 79 79 79 79 79 79 79 79 78 78
73 71 72 72 71 72 72 72 72 73 73 77 76 78 77 75 75 73 73 75 80 81 81 82 81 81 81 81 81 80 80 80 80 79 79 79 79 79 79 79 78 78 78
74 72 71 72 72 72 73 71 73 74 74 76 75 75 74 76 75 74 74 73 77 81 81 81 81 81 81 81 81 81 80 79 79 79 79 79 79 79 79 78 78 78 77
74 73 72 72 73 71 73 71 72 73 73 73 77 75 74 75 75 75 74 74 74 77 80 81 80 80 81 82 82 81 80 80 79 79 79 79 79 79 79 78 78 77 77
75 73 72 72 73 73 76 74 75 74 72 73 76 73 74 74 74 78 75 75 73 74 74 78 80 80 81 82 82 81 81 80 79 79 79 79 79 78 78 78 77 77 77
76 73 72 73 74 71 72 76 74 72 73 73 79 76 73 73 74 73 75 78 74 75 74 74 74 75 80 82 82 81 81 80 80 79 79 78 78 78 77 77 77 77 76
76 74 73 74 73 72 72 76 73 72 72 73 71 71 71 73 72 73 74 75 75 76 75 74 73 73 74 79 79 80 81 81 80 80 79 78 78 77 77 76 76 76 76
74 75 74 74 73 73 72 73 72 70 70 71 69 67 66 70 71 74 73 75 74 75 77 76 75 74 73 73 75 79 80 80 81 81 80 78 78 77 77 76 75 75 75
76 76 75 74 73 72 72 73 73 72 70 70 71 70 63 64 66 70 71 72 74 72 76 76 77 76 73 73 76 77 79 77 79 80 80 79 78 77 77 76 75 75 75
77 77 75 75 73 72 72 73 75 71 70 70 71 74 70 70 66 67 70 72 73 75 73 73 75 76 75 74 76 77 77 77 78 79 80 80 79 78 78 77 76 75 75
77 78 77 75 74 73 73 73 73 73 71 71 70 70 69 68 69 67 66 70 72 73 73 74 74 74 75 74 73 75 77 76 76 77 79 79 79 79 79 79 78 77 76
75 77 77 75 74 73 73 73 74 73 73 71 71 70 70 70 70 68 66 67 69 73 73 74 74 74 75 75 79 79 77 76 75 76 76 77 78 79 80 80 80 79 79
74 75 75 74 74 74 74 74 74 74 74 73 73 72 71 71 72 70 70 67 68 70 73 73 75 74 78 75 76 79 78 75 74 73 73 74 76 77 78 79 80 80 80
79 77 78 76 76 75 75 74 73 73 74 73 73 72 72 72 72 71 72 69 68 67 69 73 73 74 74 75 77 78 78 74 73 72 71 72 73 74 75 76 77 77 78
80 76 78 77 76 76 75 74 73 73 73 73 73 72 72 72 72 72 71 71 70 65 66 72 73 75 76 75 76 76 76 75 73 72 71 71 71 72 73 73 73 73 74
77 76 77 78 76 76 75 74 73 73 73 73 73 72 72 72 72 72 72 71 69 69 67 70 73 75 77 81 79 77 77 75 73 71 70 70 70 71 71 72 71 71 72
77 77 78 78 77 75 75 73 73 73 73 72 73 73 73 73 72 71 72 72 70 69 68 71 71 73 75 76 77 76 77 77 78 73 72 71 70 70 70 70 70 70 70
75 76 78 78 78 77 75 74 73 76 73 73 74 73 73 77 73 72 72 72 71 71 70 69 69 71 73 76 76 75 80 83 79 78 72 70 69 69 68 68 67 67 66
74 75 77 78 77 77 76 76 76 74 74 74 74 74 74 74 73 72 72 72 72 73 71 69 70 71 73 74 74 74 75 76 79 77 73 72 70 69 68 66 65 64 62
75 75 76 78 79 79 78 77 76 74 74 75 75 75 75 74 73 74 73 73 73 72 71 70 70 70 70 73 72 71 73 71 73 82 79 75 72 72 71 70 69 67 63
78 77 77 77 77 79 80 78 77 76 74 73 74 75 75 76 74 74 76 73 73 72 71 71 70 70 71 70 70 71 70 75 73 74 74 76 77 77 79 75 74 71 67
77 76 75 78 77 81 74 71 76 75 75 74 75 74 75 75 74 71 70 71 74 73 72 71 71 72 72 70 70 70 69 68 68 74 72 78 76 78 78 78 71 68 64
79 78 78 76 76 77 70 69 71 78 75 76 76 77 76 81 74 76 71 69 68 68 71 76 72 73 72 76 72 70 70 70 70 77 73 74 76 75 77 78 68 64 63
77 78 77 79 79 79 68 67 70 77 77 77 77 77 77 78 75 75 74 74 74 74 72 72 73 78 79 79 73 78 74 71 72 75 74 71 76 73 75 75 65 64 62
77 78 79 77 77 79 66 66 67 76 77 77 77 78 78 78 72 67 75 74 73 75 73 66 68 68 68 67 71 70 72 70 70 70 72 71 72 72 72 71 68 62 60
79 79 79 80 76 79 67 64 65 78 75 77 78 76 68 75 67 64 73 75 73 76 75 72 72 68 65 69 66 69 73 69 70 68 73 73 71 72 71 70 66 63 61

GFSMA_sfc_temp_075.txt.gz
Temp
70 72 71 71 71 72 72 71 71 72 72 74 74 75 75 73 72 73 72 81 81 81 81 81 81 81 80 80 80 80 80 80 79 79 79 79 79 78 78 78 78 78 78
71 71 71 71 70 71 71 71 72 72 72 73 73 75 74 73 73 73 72 74 80 81 81 81 81 81 81 81 80 80 80 79 79 79 79 79 79 78 78 78 78 78 77
72 71 70 70 70 71 72 71 71 73 72 74 73 73 73 73 73 73 72 72 75 80 81 81 81 81 81 81 81 81 80 79 79 79 79 79 79 78 78 78 78 77 77
74 71 71 71 72 70 72 71 70 70 71 72 71 71 72 72 73 73 72 73 73 75 78 81 81 80 81 81 81 81 80 80 79 79 79 79 79 79 78 78 77 77 76
74 72 70 71 72 71 72 71 71 72 70 71 72 71 71 71 72 76 73 73 72 73 72 76 79 79 81 82 82 81 81 80 79 79 79 79 78 78 78 77 77 77 76
75 72 71 71 72 70 71 71 72 70 71 71 77 73 71 72 72 71 72 75 72 73 72 72 72 74 79 81 81 81 81 81 80 79 79 78 78 77 77 77 77 76 76
74 72 72 73 71 71 70 74 70 71 70 70 69 69 69 71 71 71 72 72 73 74 73 73 71 72 73 78 79 80 81 81 81 80 79 78 77 77 76 76 76 76 76
74 73 73 72 71 71 71 72 71 69 68 69 68 65 64 68 70 72 71 73 72 73 74 75 73 73 72 71 74 78 79 80 81 81 80 79 78 77 76 76 75 75 75
75 74 73 73 71 70 71 71 71 70 69 69 69 68 62 63 64 69 70 70 72 70 72 73 74 74 73 71 74 75 79 77 79 80 80 79 78 77 77 76 75 75 75
74 74 74 73 72 71 71 72 73 70 69 68 69 72 68 67 65 66 69 70 70 73 71 71 73 74 73 72 75 77 77 76 78 79 80 80 79 78 78 77 76 75 75
75 76 75 74 72 71 71 72 72 71 70 69 69 68 67 67 66 65 65 68 70 71 71 72 72 72 74 73 72 73 76 76 76 77 78 79 79 80 80 79 78 77 77
73 75 75 74 73 72 72 72 72 72 70 70 69 68 69 71 68 65 64 64 66 70 71 72 72 72 73 73 77 78 77 76 75 75 76 77 78 79 81 81 81 80 79
72 73 73 73 72 72 72 72 72 72 72 71 71 70 69 69 69 68 67 65 65 68 70 71 72 72 75 72 74 77 78 75 74 73 73 73 75 76 78 79 80 81 80
76 75 74 74 74 73 73 72 72 72 72 71 72 71 71 70 70 69 69 68 66 65 67 71 72 72 73 73 75 76 75 74 74 72 72 72 72 73 74 75 76 77 77
78 75 75 75 75 74 73 73 72 72 72 72 72 71 71 71 70 70 69 69 69 64 65 70 71 74 75 74 75 74 75 75 73 72 71 71 71 71 72 73 73 73 74
75 75 74 74 73 74 74 72 72 72 72 71 72 71 71 71 70 70 70 69 68 67 65 68 71 72 75 78 78 76 76 74 73 72 71 70 70 71 71 71 71 71 72
74 74 74 74 73 74 73 72 72 72 72 71 71 71 71 71 71 70 70 70 69 68 66 69 68 71 73 74 76 75 75 76 75 72 71 70 69 69 69 69 69 69 69
73 75 75 74 74 75 74 72 72 74 72 71 72 71 72 75 72 71 70 71 70 69 68 67 68 70 72 73 74 74 78 80 76 76 72 71 70 69 68 67 66 66 65
73 73 73 74 75 76 74 73 73 72 72 72 73 72 73 72 71 71 70 70 70 71 69 68 69 70 70 72 72 73 73 74 77 77 74 72 71 70 68 67 66 64 62
73 73 73 74 75 76 77 76 75 73 72 73 73 73 73 73 72 72 72 71 71 70 70 69 68 68 69 71 70 70 72 71 75 80 77 73 71 72 70 68 67 66 61
75 74 74 73 75 76 78 76 75 74 74 73 73 73 73 74 73 72 74 72 72 71 70 69 68 69 69 69 70 70 69 71 72 71 72 74 76 79 78 73 72 66 62
73 71 73 76 73 78 72 70 75 76 74 73 73 72 73 73 72 70 69 70 73 72 70 69 70 70 71 70 69 69 68 67 71 72 71 75 76 76 75 74 65 63 61
76 75 73 74 75 77 69 68 71 79 77 75 74 74 73 78 72 74 70 68 68 67 70 73 72 71 71 72 70 68 69 68 68 76 71 72 73 73 75 68 64 62 61
76 76 76 76 74 77 68 66 69 76 76 76 76 75 75 76 73 73 73 72 72 72 71 71 71 75 76 77 72 74 72 70 70 72 72 71 72 72 72 65 63 62 60
76 76 77 77 77 77 65 65 66 74 75 75 75 75 75 75 71 66 73 72 72 73 71 65 67 67 66 66 67 69 70 68 69 69 71 71 71 73 72 67 62 62 59
76 77 76 77 73 77 65 63 65 77 75 76 77 75 67 74 66 63 70 73 71 75 74 72 71 67 65 68 65 68 71 69 69 68 71 71 72 72 70 70 66 61 59

GFSMA_sfc_temp_078.txt.gz
Temp
73 73 73 73 73 74 75 74 73 74 75 77 77 77 77 77 77 78 78 80 80 81 82 81 81 80 80 80 80 80 80 80 79 79 79 79 79 78 78 78 78 78 78
72 73 73 73 73 74 74 74 75 75 75 76 76 77 77 77 76 76 78 78 80 80 81 81 81 81 80 80 80 80 80 80 79 79 79 79 78 78 78 78 78 78 77
73 74 73 73 73 73 74 74 75 76 76 76 75 76 76 76 77 76 77 78 78 80 81 81 81 80 80 81 81 80 80 79 79 79 79 79 78 78 79 78 78 77 77
74 73 73 73 74 73 74 74 74 74 72 75 75 75 75 76 76 76 77 77 78 80 78 80 80 80 80 81 81 81 81 80 79 79 79 79 79 79 78 78 77 77 76
75 72 74 73 75 74 75 75 74 75 74 75 76 75 75 75 76 79 76 77 77 78 78 77 78 79 80 82 82 82 81 80 79 79 79 79 78 78 78 77 77 77 76
75 74 74 74 74 75 73 74 75 73 74 74 78 76 75 76 76 76 77 79 78 78 78 77 77 79 78 80 81 81 81 81 80 80 79 78 78 78 78 77 76 76 76
75 73 73 73 74 75 74 75 74 74 74 73 73 74 74 75 76 76 77 77 77 79 78 78 77 78 78 77 78 79 80 81 81 80 80 78 78 77 77 76 76 76 76
75 75 74 74 73 74 74 75 74 72 72 73 72 70 69 73 75 76 76 76 77 78 79 79 78 78 78 78 78 78 79 79 81 81 80 79 78 77 77 76 75 75 76
76 75 74 73 73 73 74 74 74 74 73 73 73 72 69 68 69 75 75 75 76 76 77 78 79 79 78 79 78 78 78 77 79 80 80 80 79 78 77 77 76 75 75
75 75 75 75 74 73 74 75 75 74 73 73 73 75 73 72 71 70 74 75 75 77 77 77 79 80 79 79 79 78 77 76 77 79 80 80 79 79 79 78 77 76 76
75 76 76 75 74 73 74 75 74 73 74 73 73 72 73 72 71 70 70 73 76 77 77 77 79 79 79 79 79 78 76 76 76 77 78 79 79 80 80 80 79 78 77
75 75 75 75 75 73 74 75 76 75 74 73 74 73 74 74 73 71 70 71 71 75 77 78 78 78 79 79 80 78 78 76 75 75 75 76 78 79 80 81 81 80 80
74 75 76 75 75 73 75 75 74 75 75 75 74 75 74 74 75 73 72 72 72 75 76 78 79 78 81 79 80 77 78 75 74 73 73 73 74 76 77 78 79 80 81
76 76 76 76 75 76 76 74 75 76 75 75 75 75 76 75 75 75 74 73 73 72 73 78 79 80 79 80 79 77 81 73 73 72 71 72 72 73 74 74 75 76 77
78 77 77 76 75 74 75 75 75 73 75 75 75 75 75 76 76 76 75 74 74 72 73 77 78 80 81 82 81 83 81 75 73 72 71 71 71 71 72 72 72 72 73
76 76 76 77 75 75 74 74 75 75 75 75 76 75 75 76 76 75 76 74 73 73 73 75 78 78 80 83 82 83 83 75 74 72 71 71 70 70 71 71 70 70 70
75 75 76 76 76 74 74 74 74 75 75 75 75 75 75 75 76 76 75 75 75 74 73 76 75 78 78 79 82 82 82 82 83 73 72 71 70 70 70 70 69 69 69
75 75 75 76 76 76 75 75 74 77 75 75 75 75 75 77 75 75 76 75 75 75 75 73 75 77 78 80 80 79 82 85 83 78 71 70 69 69 68 67 66 66 64
74 75 75 75 76 76 76 76 75 76 76 76 76 75 76 76 75 76 75 75 76 76 75 74 75 76 78 79 80 80 80 80 83 77 74 72 70 69 68 66 64 62 61
74 74 75 76 76 76 77 77 76 76 76 76 76 76 77 76 76 76 76 75 76 75 75 74 74 75 76 78 77 76 79 81 80 84 80 75 71 71 70 67 64 62 60
74 75 75 76 76 77 78 76 77 76 76 76 76 76 77 76 72 74 78 77 75 75 75 74 74 75 76 76 76 78 75 78 79 80 80 84 84 84 83 73 66 64 61
73 73 74 75 75 79 71 70 75 77 77 76 76 76 77 74 73 69 68 69 75 76 75 75 75 74 76 75 77 76 75 75 75 81 79 80 84 82 82 75 64 62 61
73 72 73 74 75 76 68 68 70 78 77 77 76 77 77 80 73 78 71 67 67 67 69 77 75 76 76 78 78 76 75 74 75 80 77 78 82 81 78 72 63 62 60
73 73 73 73 74 76 66 66 69 77 77 77 77 77 77 78 77 77 77 77 77 78 76 75 75 77 78 79 78 79 76 75 76 79 78 73 82 80 71 71 63 62 59
73 74 74 73 73 75 65 64 67 76 77 77 77 77 77 77 70 65 76 76 76 77 72 65 67 67 66 66 69 75 75 73 76 78 79 77 79 76 78 72 66 61 59
75 76 75 75 71 74 64 62 65 77 76 77 77 76 66 75 65 62 74 76 75 76 78 78 77 70 66 71 64 72 77 74 75 74 77 75 75 74 76 75 69 66 68

GFSMA_sfc_temp_084.txt.gz
Temp
89 91 90 93 93 95 94 93 93 93 92 94 94 94 94 93 94 97 94 81 81 82 82 82 81 81 81 81 81 81 81 81 80 80 80 80 80 80 79 80 79 79 78
90 91 91 92 93 95 94 94 91 93 94 94 91 93 93 93 92 94 96 89 81 81 81 81 82 81 81 82 82 81 81 81 80 80 80 80 80 79 80 80 79 79 78
89 89 91 93 93 91 91 92 94 94 94 95 91 92 94 93 93 92 96 97 89 80 81 81 81 81 81 81 82 82 82 81 81 80 80 80 80 80 79 79 79 79 78
89 89 91 93 93 93 95 95 96 94 94 94 92 94 94 95 92 92 95 96 96 98 83 82 80 81 81 82 82 82 82 81 81 80 80 80 80 79 79 79 79 78 78
89 92 93 92 90 94 95 96 94 95 92 94 94 94 94 95 94 97 94 94 94 96 97 82 81 80 81 82 82 82 82 81 81 80 80 80 80 79 79 79 78 78 78
89 90 93 90 92 93 93 95 91 93 93 93 95 94 97 97 97 98 97 98 97 95 98 94 94 93 81 82 81 81 81 81 81 81 80 80 79 79 79 78 78 78 78
89 88 93 90 92 92 90 90 91 88 92 93 91 93 95 95 96 99 101 102 97 98 98 98 95 97 95 81 80 80 81 81 81 81 80 80 79 79 78 78 77 77 77
89 89 89 90 90 92 88 88 87 92 93 94 90 91 89 91 97 101 101 100 98 102 101 98 97 95 94 97 92 81 80 80 81 81 81 80 80 79 78 78 77 77 77
89 89 89 91 89 91 92 88 89 88 91 92 89 89 87 86 92 96 94 99 96 100 100 99 98 97 96 97 92 91 81 79 80 81 81 80 80 79 79 78 78 77 77
90 90 89 89 88 93 90 90 91 91 89 89 92 95 89 87 87 88 95 96 98 98 97 102 102 100 98 100 93 86 81 78 78 79 80 80 80 80 80 79 78 78 77
89 90 89 89 88 91 89 89 88 87 92 92 93 93 90 94 90 89 88 92 97 100 100 102 101 103 100 100 100 91 80 78 77 77 78 79 79 80 80 80 80 79 79
91 89 90 89 89 90 88 90 89 88 88 90 93 92 93 92 91 92 91 90 92 95 100 101 100 102 102 102 95 82 81 78 76 75 75 76 77 78 79 80 80 80 80
93 88 89 86 89 88 89 89 87 89 88 89 87 93 95 95 96 94 93 91 92 96 97 100 100 101 102 101 99 83 84 78 75 73 72 73 75 76 77 78 78 79 79
94 93 89 90 89 90 89 88 90 91 90 90 88 89 95 96 96 95 92 90 91 93 95 90 103 102 101 100 90 83 97 77 75 72 72 72 72 73 74 75 75 75 75
96 92 91 90 90 89 88 88 91 89 89 88 89 88 90 96 96 96 95 94 89 87 90 93 94 99 99 101 93 97 97 80 77 74 72 71 71 72 72 73 73 72 73
91 93 91 90 90 89 89 87 90 89 87 90 92 89 88 94 94 95 95 95 93 90 87 96 97 96 95 97 95 96 96 82 81 76 73 71 71 71 71 71 71 71 71
91 88 89 88 90 90 90 87 89 90 87 87 89 89 87 89 92 95 95 94 93 93 88 93 97 97 92 91 94 94 96 97 101 76 75 73 70 70 70 69 68 69 69
90 90 89 88 89 90 90 88 88 91 88 87 88 88 88 92 87 88 92 89 91 91 90 84 90 93 92 92 92 90 96 101 99 83 78 73 71 70 67 66 65 65 64
88 91 90 89 88 90 89 88 89 89 90 89 89 88 88 88 86 90 90 92 93 92 91 89 89 94 95 95 93 93 93 95 101 85 79 74 73 71 65 63 62 61 60
87 88 89 89 90 90 91 91 89 88 89 90 90 90 90 89 88 87 88 87 88 88 90 90 91 92 94 95 94 93 94 98 97 100 91 84 78 69 65 63 64 62 60
88 88 88 89 89 91 94 89 90 90 88 89 91 91 91 88 80 82 91 89 88 88 91 91 91 93 93 93 90 94 93 95 95 98 98 98 100 97 80 67 69 64 62
87 87 87 88 88 93 79 73 83 89 90 88 89 90 90 81 80 72 71 72 78 85 84 88 90 89 87 89 93 92 91 90 87 99 94 94 99 98 100 96 63 63 62
85 85 86 87 87 88 73 69 72 91 92 90 89 90 92 96 84 91 73 69 69 68 70 83 83 85 85 87 88 85 87 87 87 93 91 91 97 97 99 82 63 62 61
84 85 85 85 86 88 70 68 69 87 89 90 91 90 89 91 92 90 90 90 89 89 84 86 85 86 88 89 88 89 87 85 89 94 94 89 96 95 99 90 64 63 61
82 85 86 85 85 85 67 66 70 87 87 87 90 91 91 90 80 69 88 88 89 90 82 71 71 71 68 67 73 88 88 89 90 94 98 95 95 95 97 96 78 62 60
83 85 86 87 80 85 69 63 68 88 87 89 88 88 73 83 71 66 85 86 85 88 91 92 89 79 72 80 66 80 88 87 90 91 97 92 94 94 90 98 92 78 79

GFSMA_sfc_temp_087.txt.gz
Temp
92 94 93 92 93 93 91 92 87 90 94 88 97 96 95 95 97 96 91 82 82 82 82 82 82 82 82 81 81 82 82 81 81 81 80 80 80 80 80 80 80 79 79
87 93 88 85 82 83 79 80 81 93 83 94 91 95 95 94 93 96 94 88 82 82 82 82 82 82 82 82 82 82 82 81 81 81 80 80 80 80 80 80 80 80 79
91 91 90 84 89 92 92 94 84 92 96 93 92 95 95 95 94 94 95 91 88 82 82 82 82 81 81 82 82 82 82 82 81 81 80 80 80 80 80 79 79 79 79
91 87 87 85 94 89 85 89 91 89 90 84 83 86 95 95 94 94 96 96 97 95 83 83 82 82 82 82 82 82 82 82 81 81 80 80 80 80 80 79 79 79 79
91 83 83 90 91 85 90 84 88 84 89 89 93 95 96 95 94 98 94 95 94 97 96 82 82 82 82 83 83 83 82 82 81 81 80 80 80 80 80 79 79 79 78
91 87 85 92 90 85 89 81 88 88 82 87 88 95 96 97 98 97 96 98 96 95 98 94 92 88 81 83 83 82 82 82 81 81 81 80 80 80 79 79 78 78 78
91 90 82 91 82 87 88 92 91 89 92 93 78 91 95 96 96 98 101 101 97 98 98 97 96 97 89 81 81 81 82 82 82 81 81 80 80 80 79 78 78 78 78
91 91 86 91 85 86 89 90 87 87 91 89 83 90 87 91 97 100 99 99 98 101 100 98 97 95 95 98 90 82 81 82 82 82 81 80 80 79 79 78 78 78 78
92 89 90 76 90 83 91 89 90 87 74 93 87 87 79 81 89 96 95 98 96 99 100 98 98 97 96 97 92 90 82 80 81 81 81 80 80 79 79 79 78 78 77
91 92 91 91 90 87 82 90 93 88 89 89 94 91 91 89 81 87 95 96 97 98 97 100 100 99 98 99 93 88 81 79 80 80 80 80 80 79 79 79 78 78 77
91 93 92 91 89 87 91 84 89 88 93 90 85 93 90 95 93 80 88 92 97 100 100 100 101 102 100 100 101 86 81 80 78 79 79 79 79 80 80 80 80 79 79
92 91 91 90 90 91 90 90 90 89 88 89 91 91 85 80 85 89 90 91 93 96 101 101 101 102 102 102 94 83 83 80 78 76 76 76 77 79 80 80 80 80 80
91 88 89 88 91 89 91 91 89 88 89 89 88 92 92 94 95 94 92 92 92 96 97 100 101 101 103 101 98 87 86 80 77 74 74 74 75 76 76 78 78 79 79
96 90 91 90 90 90 90 89 90 91 91 90 88 88 91 96 96 96 91 91 89 92 94 91 102 102 101 101 93 86 97 80 77 76 74 73 73 74 74 75 75 75 75
83 91 93 90 91 91 91 89 90 89 89 89 89 89 90 95 98 97 96 95 90 85 90 92 95 100 100 100 93 98 97 81 80 76 74 73 72 72 73 73 73 72 72
94 78 91 91 91 91 90 88 89 91 89 91 92 89 89 94 96 96 96 96 94 90 86 95 97 98 97 98 96 96 96 83 83 78 74 73 73 73 72 71 71 71 71
91 92 90 91 91 91 90 89 88 91 88 88 89 90 89 89 92 96 97 96 94 93 88 92 97 96 93 93 94 95 95 95 99 79 74 74 73 73 71 70 69 69 69
91 90 90 90 89 91 91 88 89 92 90 88 88 88 89 92 87 88 91 89 91 90 89 83 88 92 91 94 93 91 95 100 99 82 76 74 74 71 69 67 67 65 64
89 91 91 88 88 90 90 90 88 90 90 90 90 89 89 89 87 90 90 91 93 91 91 89 89 94 95 96 93 93 93 94 100 85 78 77 74 70 66 64 63 62 61
89 89 90 91 90 90 91 91 91 89 90 91 92 91 91 90 88 87 88 87 89 89 89 90 90 92 94 95 96 93 94 98 97 101 94 87 77 70 66 64 63 63 61
90 89 89 90 91 92 95 91 91 91 88 88 91 92 92 89 81 82 91 87 87 88 89 91 91 93 93 92 89 93 92 95 94 98 98 98 100 88 76 65 68 65 62
87 89 88 89 89 93 80 74 84 91 90 86 87 90 92 82 82 74 73 73 77 83 85 87 89 87 85 88 92 92 90 88 85 97 92 93 98 97 98 91 66 63 63
86 87 88 89 88 89 74 70 73 92 92 89 89 89 91 97 84 91 74 72 72 69 70 82 82 84 84 86 86 85 85 86 86 92 90 90 97 96 100 75 63 63 62
81 84 86 87 87 89 71 69 70 88 89 89 90 91 89 90 91 90 90 90 87 87 84 85 83 84 86 87 86 87 85 85 88 92 91 88 97 95 99 82 64 62 62
81 81 84 85 86 87 69 66 70 87 88 87 89 90 90 90 80 73 88 88 89 90 83 73 74 74 74 72 74 88 87 87 87 92 97 95 96 95 97 89 73 63 61
77 80 82 86 80 86 71 64 68 88 87 89 88 87 74 82 73 67 85 87 85 87 90 91 89 78 73 80 68 79 86 84 87 88 94 93 94 94 90 97 83 72 72

GFSMA_sfc_temp_093.txt.gz
Temp
72 74 72 70 72 72 71 72 72 73 79 80 82 86 84 80 77 76 73 81 81 82 82 82 82 81 81 81 81 81 81 81 80 80 80 80 79 79 79 79 79 79 79
73 72 71 72 71 71 71 72 71 73 77 81 81 82 81 81 79 77 76 76 81 81 82 82 82 82 82 82 81 81 81 81 81 80 80 80 79 79 79 79 79 79 79
75 74 71 71 71 71 73 72 72 76 80 81 81 81 82 82 81 80 77 75 77 81 82 82 82 81 81 82 82 81 81 80 80 80 80 80 80 80 80 79 79 79 79
78 76 78 74 72 73 74 72 77 76 76 76 76 78 79 81 82 80 79 78 77 80 80 81 81 81 81 82 82 82 81 81 80 80 80 80 80 80 79 79 79 79 78
77 76 74 73 76 74 72 77 72 75 75 74 81 78 78 79 82 85 80 80 77 78 77 79 80 80 82 83 82 82 82 81 80 80 80 80 80 79 79 79 79 78 78
76 74 74 75 78 75 74 76 76 75 76 75 82 82 78 78 78 78 82 84 80 80 78 77 76 78 80 82 82 82 82 82 81 80 80 80 79 79 79 78 78 78 78
76 74 74 75 77 75 75 77 77 76 75 75 75 75 75 81 78 78 80 80 82 81 80 78 76 76 78 80 80 81 82 82 82 81 80 80 79 79 78 78 77 78 78
75 76 73 75 74 75 76 77 75 73 74 74 74 71 69 74 78 80 78 82 80 82 83 83 81 78 78 77 77 80 81 81 82 82 81 80 79 78 78 77 77 77 77
79 77 76 73 75 73 73 74 75 74 71 74 79 74 69 68 70 75 77 79 80 79 81 82 83 82 80 79 80 80 80 79 80 82 81 80 79 78 78 78 77 77 77
80 78 75 75 75 74 73 74 79 74 73 71 75 81 75 74 69 70 75 76 79 82 79 79 82 83 83 81 83 82 81 79 79 80 81 80 80 79 79 79 78 78 77
80 81 77 76 75 73 74 75 77 76 74 74 72 74 76 75 75 72 69 73 76 78 79 80 80 82 83 82 80 80 81 79 78 78 79 79 79 80 80 80 80 79 78
78 79 79 76 76 73 74 76 76 77 76 74 74 74 73 75 76 73 72 72 72 77 78 81 81 81 82 81 85 83 80 79 78 78 77 77 78 80 80 80 80 80 79
74 77 77 76 75 75 76 75 76 76 76 75 75 74 74 74 75 77 73 75 74 76 77 79 82 82 86 81 82 84 83 79 77 76 75 76 76 77 77 78 78 78 78
77 78 77 77 77 78 78 77 76 76 76 75 75 75 75 75 75 75 75 74 71 71 74 77 80 82 81 80 82 82 83 82 77 76 75 75 75 75 75 75 75 75 75
77 78 78 78 78 78 77 77 75 75 76 76 75 75 75 76 76 76 79 75 73 68 70 76 80 82 81 81 83 84 82 80 76 76 77 76 74 74 73 74 73 72 72
75 76 75 76 77 78 78 76 75 75 75 75 77 75 75 75 76 76 76 74 74 72 70 73 77 79 82 85 84 83 83 78 78 77 78 76 73 73 72 72 72 71 70
74 73 73 75 75 76 77 76 75 76 75 75 76 75 76 76 76 75 76 75 75 73 70 73 76 77 77 76 80 80 81 81 81 77 79 76 73 74 72 71 70 70 69
74 75 73 72 75 76 77 76 76 78 75 75 76 75 76 81 76 75 74 74 76 74 72 71 72 75 78 80 78 78 83 87 83 85 80 78 73 73 69 68 68 67 65
76 75 75 74 75 77 77 76 77 76 76 76 77 76 76 76 74 75 74 73 74 76 74 72 73 75 76 77 78 78 79 80 84 84 82 78 72 70 68 66 64 64 62
78 78 77 77 77 78 78 77 77 76 76 78 77 77 77 77 76 76 75 75 75 73 73 72 72 73 74 78 76 75 75 75 77 86 82 74 71 71 67 64 64 63 61
78 78 78 78 78 78 82 77 78 77 75 76 77 77 79 79 77 76 78 75 74 73 72 71 70 71 71 73 73 73 72 72 72 75 74 75 75 71 67 65 67 66 63
77 77 77 77 77 83 76 73 77 77 77 77 77 76 78 78 77 73 72 73 76 73 72 71 71 70 70 70 71 71 71 70 69 74 75 80 78 80 78 68 68 65 63
73 74 75 74 76 76 72 71 70 75 76 76 76 77 78 85 77 79 73 71 70 69 72 73 70 70 70 73 72 71 71 71 72 78 73 76 78 77 83 73 66 64 62
68 70 72 74 75 77 70 66 68 72 75 76 77 77 78 78 77 76 77 76 76 77 74 73 74 78 77 79 74 78 73 72 73 74 75 72 78 76 75 67 64 64 62
67 68 70 71 73 73 66 65 66 72 71 74 76 77 76 76 73 70 76 75 76 78 75 69 71 71 71 71 72 73 71 69 73 77 73 71 78 72 73 69 62 63 61
66 69 68 70 69 73 66 63 64 70 73 72 76 76 69 76 69 66 74 76 75 78 76 81 73 70 69 72 67 72 77 71 73 73 77 71 71 71 70 70 62 60 59

GFSMA_sfc_temp_096.txt.gz
Temp
70 72 71 69 71 70 69 70 71 71 73 76 78 82 78 75 74 74 72 81 80 81 82 81 81 81 81 80 80 80 80 80 80 80 80 80 79 79 79 79 79 79 78
70 70 70 70 70 70 69 70 70 70 72 75 78 80 78 76 75 74 73 75 80 81 81 81 81 81 81 81 81 81 81 80 80 80 80 80 79 79 79 79 79 79 79
72 71 70 70 71 71 72 71 72 73 74 77 77 77 76 76 75 75 74 73 76 81 81 81 81 81 81 81 81 81 81 80 80 80 80 80 79 79 79 79 79 79 79
74 71 70 70 71 71 71 70 71 73 72 74 74 75 76 76 76 76 75 75 75 77 79 81 81 81 81 81 82 81 81 80 80 80 80 80 80 80 79 79 79 79 78
75 72 71 71 72 71 71 71 70 72 73 73 76 76 76 75 77 81 76 76 74 75 74 78 80 80 81 83 82 82 81 81 80 80 80 80 80 79 79 79 79 78 78
75 72 72 73 73 71 71 72 73 74 73 73 78 79 75 75 76 75 76 79 75 76 75 75 74 76 80 82 82 82 82 81 81 80 80 80 79 79 79 78 78 78 78
74 73 72 74 73 73 72 72 74 74 73 72 71 73 73 75 75 76 76 76 76 78 76 76 74 74 76 80 80 81 82 82 82 81 80 79 79 79 78 77 77 77 77
74 75 74 73 73 73 73 73 74 72 71 72 70 68 67 72 73 76 76 78 76 78 78 79 77 76 75 75 77 80 80 81 81 81 81 80 79 78 78 77 77 77 77
76 73 74 73 73 71 71 73 73 72 70 72 73 71 66 66 67 72 74 74 76 75 77 78 79 79 77 76 78 79 80 78 80 81 81 81 80 79 78 78 77 77 77
76 76 74 74 73 72 72 73 76 72 71 70 72 76 72 71 68 69 72 74 74 77 77 76 79 80 80 78 81 80 79 78 79 80 81 81 80 79 79 79 78 77 77
77 78 75 74 73 72 72 72 74 73 72 72 71 71 71 72 71 69 68 72 74 75 76 76 77 78 80 80 79 79 80 78 78 79 79 80 80 80 81 80 80 79 78
73 76 76 74 74 73 73 74 72 74 73 72 72 72 71 71 71 69 68 68 70 75 76 76 77 77 78 79 83 81 80 78 77 77 77 78 79 80 81 81 80 80 79
73 73 74 74 73 72 73 73 73 73 74 73 73 72 72 73 72 72 69 70 70 73 75 76 77 77 81 78 79 81 81 77 76 75 75 75 76 77 78 79 78 78 78
74 75 75 74 75 75 75 74 73 74 74 73 74 72 72 72 73 72 71 69 69 69 71 74 77 77 78 78 80 80 80 76 75 74 73 73 74 74 74 76 75 75 74
75 77 76 76 76 75 75 74 74 74 73 72 72 73 72 73 73 73 73 72 70 67 68 73 76 78 79 79 80 80 80 78 75 74 72 73 73 73 72 73 73 72 72
75 74 75 76 76 76 75 74 74 73 73 73 74 72 72 72 74 73 72 72 71 70 67 70 74 76 80 81 80 80 79 76 76 73 73 73 73 73 72 72 72 71 70
73 73 74 74 74 75 75 74 73 74 74 73 73 73 73 73 72 73 73 72 71 71 68 71 72 75 75 75 79 78 79 80 80 76 74 72 72 71 71 71 70 69 68
73 73 73 72 73 74 74 74 74 76 74 73 74 73 73 77 73 73 72 72 71 71 70 69 70 73 74 76 77 76 80 84 80 80 73 72 71 69 69 68 67 67 65
73 73 73 72 72 73 74 74 74 75 74 74 75 74 74 73 72 72 71 72 71 73 71 70 70 71 72 75 75 76 76 77 81 79 77 74 71 71 67 66 64 63 62
74 74 73 73 73 74 75 75 75 74 74 75 75 75 75 75 74 74 73 72 72 71 70 69 69 69 70 74 73 72 72 72 73 81 77 73 71 70 69 65 64 63 60
74 75 75 74 74 75 79 75 75 74 73 74 74 74 76 76 74 73 76 73 72 71 70 69 69 69 69 69 69 71 69 69 70 70 71 73 74 74 74 68 67 66 62
72 74 75 74 74 79 72 71 74 74 75 74 74 74 76 75 74 71 70 71 74 72 71 69 69 68 69 69 69 69 69 68 67 72 71 76 74 77 76 73 69 65 63
68 69 71 73 73 74 68 67 69 72 73 74 74 76 77 82 75 77 73 70 68 68 71 72 71 70 69 70 70 69 68 68 69 73 71 74 73 75 77 75 66 63 62
67 68 68 70 70 73 67 65 66 70 72 73 74 74 74 76 76 74 74 74 74 74 72 73 74 78 74 77 72 75 71 70 70 71 72 69 77 74 74 72 65 63 61
65 66 68 68 69 70 63 62 64 71 71 71 73 74 75 75 71 67 72 73 74 75 74 67 68 68 68 68 69 71 69 68 71 72 69 69 73 70 70 72 63 62 60
65 66 67 67 66 69 60 59 62 69 69 70 72 73 67 72 66 63 71 74 73 77 76 75 76 69 66 70 65 71 75 69 70 71 72 70 67 69 69 70 64 60 59

GFSMA_sfc_temp_102.txt.gz
Temp
72 72 71 70 71 71 71 72 72 73 75 77 78 77 77 77 77 77 76 79 80 80 81 81 81 81 81 81 81 81 81 81 80 80 80 80 80 80 80 80 80 80 79
71 72 71 71 71 71 72 72 73 74 75 76 76 78 77 77 77 76 78 77 80 80 80 81 81 81 81 81 82 81 81 81 81 80 80 80 80 80 80 80 80 80 80
72 72 71 71 72 73 73 73 74 76 76 78 78 78 78 78 78 77 77 78 78 79 81 81 81 81 81 81 82 82 81 80 80 80 80 80 80 80 80 80 80 79 79
73 72 72 72 73 72 73 73 74 75 75 76 76 77 77 78 78 78 78 78 78 80 78 79 80 80 81 82 82 82 81 81 80 80 80 80 80 80 80 79 79 79 79
74 73 72 73 73 73 72 74 73 74 75 75 77 77 78 78 78 81 78 78 78 79 79 78 78 79 81 83 83 82 82 81 80 80 80 80 80 80 79 79 78 78 78
75 73 74 74 75 74 73 74 74 75 75 74 78 79 77 77 77 77 79 81 79 79 80 78 78 80 78 80 81 81 82 81 81 81 80 80 80 79 79 78 78 78 78
76 74 74 75 74 74 74 74 75 74 75 74 74 76 76 77 77 78 79 79 79 81 80 80 79 80 80 78 79 80 81 82 82 81 81 80 80 79 78 78 77 77 77
75 75 74 75 75 74 74 75 74 74 74 74 73 71 70 74 77 79 78 79 79 80 81 82 81 80 80 81 81 80 80 80 82 82 81 80 80 79 79 77 78 77 77
75 75 75 74 74 74 74 74 74 74 73 74 74 74 71 70 70 75 77 78 77 78 80 80 81 81 81 82 81 81 79 78 80 82 82 81 80 80 79 79 78 77 77
76 76 75 75 74 74 74 75 76 74 74 73 74 76 74 74 72 72 76 77 77 80 80 80 81 82 82 82 82 80 78 78 78 80 82 82 80 80 80 80 79 78 78
76 77 76 75 75 74 74 75 75 75 74 74 74 74 74 74 73 71 72 74 77 79 79 79 80 81 82 82 82 80 78 78 77 79 79 79 80 81 81 81 80 79 79
74 76 76 74 75 74 74 75 75 76 75 74 75 75 74 74 74 73 72 73 73 77 78 79 78 80 81 82 84 80 79 77 77 76 76 76 78 79 80 81 81 81 80
73 75 75 74 74 74 74 74 75 76 76 76 75 76 76 76 75 74 73 73 73 76 78 80 80 80 85 83 85 80 80 76 74 73 73 73 75 76 76 78 79 80 79
75 76 75 75 75 75 75 74 76 76 76 75 76 75 76 77 77 76 75 74 74 74 75 78 81 83 82 83 82 78 83 74 73 72 71 72 73 73 74 75 76 76 75
75 76 76 76 76 76 75 75 75 76 76 76 76 75 76 77 77 77 76 75 75 73 74 78 79 82 82 83 82 83 83 75 73 72 71 71 71 72 74 73 73 73 73
75 75 73 75 74 76 76 75 75 76 75 75 76 75 75 76 77 77 77 76 75 75 74 76 79 80 82 84 83 83 84 76 74 72 71 70 71 72 72 72 71 71 71
74 74 74 74 75 75 76 75 74 75 75 75 75 75 76 76 76 76 75 76 76 75 74 77 76 79 78 79 82 82 83 84 84 73 72 70 70 70 70 70 69 68 70
74 73 74 74 75 75 76 75 75 75 75 75 75 75 75 78 75 75 76 75 76 75 75 73 75 77 77 79 79 79 83 87 83 79 72 70 69 69 68 68 67 65 67
74 73 73 74 74 75 75 74 75 75 74 74 74 74 75 76 75 76 75 75 75 76 74 73 74 76 77 78 79 79 79 80 84 77 74 73 70 69 68 66 65 63 63
74 74 73 73 73 74 74 74 75 75 76 76 75 75 75 75 75 76 75 75 75 75 74 73 74 74 75 78 77 76 78 80 80 84 79 74 71 71 69 67 66 65 60
71 73 73 74 75 75 78 75 75 76 76 76 75 76 77 75 71 72 77 76 75 76 76 74 74 74 76 77 76 77 75 76 78 78 78 81 82 83 83 76 74 69 62
69 70 71 72 73 74 68 66 70 76 76 76 76 77 77 74 74 69 68 69 73 75 75 74 75 74 74 74 75 76 75 74 74 80 78 80 83 82 83 84 70 66 64
68 68 69 70 70 71 62 63 66 71 73 75 75 76 77 81 75 78 72 68 68 66 69 77 75 76 75 77 76 75 74 73 75 80 77 78 81 80 83 86 67 65 62
66 67 68 69 69 70 61 60 63 71 71 72 72 73 73 74 74 73 75 77 78 78 76 76 75 77 78 78 76 78 76 74 75 77 76 72 81 80 82 82 66 64 62
62 65 67 67 69 63 58 59 66 70 70 71 72 71 71 71 61 61 70 73 74 76 73 65 65 65 65 65 68 74 75 73 76 79 78 77 79 78 79 81 80 64 61
62 64 67 67 63 65 56 56 62 65 65 65 68 69 62 62 58 58 64 67 69 71 74 73 75 73 70 73 64 72 76 74 75 75 80 76 78 77 78 81 80 79 77

GFSMA_sfc_temp_105.txt.gz
Temp
83 84 82 84 83 85 86 86 85 86 87 88 89 88 89 89 89 92 91 79 80 80 81 82 82 82 82 82 81 82 82 82 81 81 81 81 81 80 80 80 80 80 80
83 84 83 84 84 86 87 86 85 87 87 90 87 89 89 90 88 88 92 90 79 80 80 81 81 81 82 82 82 82 82 81 81 81 81 80 80 80 80 80 80 80 80
82 82 83 83 84 84 84 86 87 88 90 92 88 90 91 90 91 89 91 92 91 80 80 81 81 81 81 82 82 82 82 81 81 81 80 80 80 80 80 80 80 80 79
82 82 85 84 84 85 87 87 88 89 89 90 90 91 91 90 89 88 91 91 92 93 85 80 80 80 81 82 83 83 82 81 81 81 81 80 81 80 80 80 80 79 79
83 84 85 85 84 86 87 89 87 88 88 89 91 91 91 90 90 94 90 90 91 91 93 84 79 80 81 83 83 82 82 81 81 81 81 81 81 80 80 80 79 79 78
83 84 85 84 86 87 87 88 85 87 87 87 90 91 91 92 92 92 92 94 93 91 93 89 91 92 80 80 81 81 82 82 81 81 81 80 80 80 80 79 78 78 78
83 82 86 85 86 86 85 85 87 85 88 87 87 91 91 91 92 92 93 94 93 94 94 93 92 94 94 82 80 80 81 82 82 82 81 80 80 80 79 79 78 78 78
83 84 84 86 85 86 84 84 83 87 88 86 85 86 85 89 93 94 93 93 93 96 96 94 92 91 91 94 91 81 81 81 82 82 82 81 80 80 79 78 78 78 78
84 83 84 85 84 87 87 84 85 83 86 86 83 85 84 82 85 92 91 94 90 94 94 93 93 93 91 94 90 90 83 79 80 82 82 82 81 80 80 79 78 78 78
84 84 84 84 83 86 84 85 87 85 86 84 87 87 84 84 84 86 92 93 93 95 92 95 96 96 93 95 90 84 79 78 79 81 82 81 80 80 80 80 79 79 78
83 85 83 83 83 86 84 84 83 84 87 86 86 87 85 87 84 85 85 88 93 93 93 93 95 96 94 94 96 89 79 78 77 78 78 79 80 80 81 81 80 80 80
82 83 85 83 83 84 84 85 84 84 85 85 87 87 87 86 85 87 86 86 86 90 93 94 94 95 96 96 93 80 80 77 76 75 75 76 78 79 80 80 81 81 81
85 83 82 82 84 83 84 84 83 84 85 87 84 88 89 88 88 87 87 87 87 90 92 95 95 95 97 95 95 80 81 75 73 72 73 74 75 76 78 79 79 80 80
84 85 84 84 84 84 84 83 86 87 85 87 84 85 89 89 89 89 88 87 87 88 90 86 96 96 95 94 89 80 94 74 73 72 71 72 73 74 75 75 75 76 77
85 85 85 85 85 84 83 83 86 83 85 85 85 85 86 89 90 90 89 88 86 83 86 90 91 94 94 96 90 93 93 77 74 73 71 71 71 73 73 73 73 73 74
83 83 83 84 84 84 84 83 83 83 83 86 88 83 84 88 88 89 88 88 87 86 83 90 91 91 91 93 92 91 92 78 77 73 71 70 71 71 72 72 71 71 73
82 82 82 82 82 83 83 83 83 83 83 83 84 83 83 84 87 88 88 87 87 86 84 89 88 89 86 87 89 90 93 93 95 76 72 70 70 70 71 70 69 69 71
82 82 82 82 83 83 84 82 83 83 83 83 83 83 83 86 83 84 86 83 85 85 83 80 85 88 86 87 87 86 91 95 92 82 73 71 70 70 69 68 67 66 67
82 82 80 82 84 83 82 82 83 83 83 83 84 82 84 84 81 84 83 85 87 86 85 83 84 87 87 89 87 89 88 89 94 82 78 76 73 71 69 67 65 65 64
82 81 82 81 82 83 83 83 83 82 84 85 83 83 84 84 82 83 84 83 83 80 82 80 85 86 87 88 87 87 87 92 90 94 87 80 73 73 70 68 67 67 62
79 81 81 81 81 80 82 82 83 83 83 83 85 84 85 82 73 76 82 82 83 81 82 85 85 87 87 87 85 88 87 89 90 92 90 92 94 94 94 82 80 71 65
77 79 79 79 78 78 64 65 73 83 83 83 83 84 85 77 76 68 68 68 73 79 79 79 80 83 82 84 87 86 85 84 82 93 87 88 93 92 94 96 69 67 65
75 75 76 78 76 72 61 62 66 82 81 81 81 81 81 87 79 83 74 69 69 66 69 80 79 81 81 84 83 81 83 82 83 88 86 85 91 90 94 96 69 66 65
73 74 75 75 71 68 59 60 64 80 79 77 76 76 76 72 65 69 78 82 84 85 84 85 83 83 84 85 83 83 81 80 84 88 88 81 91 89 92 93 73 68 65
69 71 71 69 67 64 56 57 69 76 75 74 74 70 70 68 61 60 73 73 76 81 76 67 65 64 64 64 68 81 82 80 83 87 91 85 87 87 89 90 92 67 63
65 62 63 65 60 62 55 55 64 76 72 74 73 73 62 63 56 56 67 69 69 73 73 76 80 79 73 80 66 78 83 78 77 79 88 85 87 86 84 93 92 92 91

GFSMA_sfc_temp_108.txt.gz
Temp
89 92 90 93 92 96 95 94 94 94 93 95 96 95 96 95 95 98 95 81 80 80 81 82 82 82 82 82 82 82 82 82 82 82 82 81 81 81 81 81 81 81 81
90 91 91 93 93 96 96 95 92 95 96 96 94 95 95 96 93 96 97 91 81 81 81 81 82 82 82 82 82 82 82 82 82 82 81 81 81 81 81 81 81 81 80
88 89 91 93 93 92 92 93 94 95 97 97 93 95 97 95 96 94 98 99 90 80 82 82 82 82 82 82 83 83 82 82 82 81 81 81 81 81 81 81 80 80 80
88 89 92 93 93 94 96 97 97 96 96 97 95 98 97 98 95 95 98 99 99 102 84 83 82 82 82 83 83 83 83 82 81 81 81 81 81 81 81 81 80 80 79
88 92 93 92 90 94 96 97 96 97 94 97 98 98 98 98 97 100 96 97 97 100 101 83 81 81 82 84 84 83 82 82 81 81 81 81 81 81 81 80 80 79 79
89 90 92 91 93 94 94 95 92 95 95 95 99 97 99 99 99 98 99 101 99 98 101 97 98 96 82 83 82 82 82 82 81 81 81 81 81 80 80 80 80 79 79
89 88 93 91 92 93 91 92 94 91 95 95 95 95 96 97 98 100 102 103 99 102 101 103 99 101 99 83 82 82 83 83 83 82 81 81 81 80 80 79 79 79 79
89 89 90 91 91 92 89 90 89 95 96 94 92 94 90 93 99 101 101 102 100 104 104 101 100 98 98 100 95 84 82 82 82 82 82 81 81 81 80 79 79 79 79
90 87 89 89 89 92 93 91 91 89 92 93 90 92 89 89 94 98 97 100 98 102 103 102 102 101 99 100 96 95 82 79 81 82 82 81 80 80 80 80 79 78 78
90 90 89 89 88 94 89 91 93 92 90 91 95 95 90 89 92 90 97 98 100 102 100 102 106 103 100 103 94 86 80 78 79 80 81 81 80 80 80 80 80 79 79
90 91 89 89 88 93 89 90 90 89 94 93 94 95 90 95 92 93 91 94 98 102 103 104 104 104 102 101 102 91 81 78 77 78 78 79 80 81 82 81 81 80 80
91 89 90 88 89 90 89 91 90 89 89 90 93 94 93 92 92 94 93 92 94 97 103 103 102 102 102 101 95 84 81 77 75 75 76 77 78 79 81 82 82 82 82
91 88 88 87 89 88 89 90 88 89 90 92 89 95 96 95 95 95 94 93 93 97 99 102 103 102 103 101 100 84 81 77 75 74 74 74 75 76 78 78 79 80 81
91 90 89 89 89 89 89 88 91 92 91 92 89 88 95 97 97 95 93 91 91 94 95 91 103 102 101 101 91 84 97 77 76 73 72 72 73 74 75 75 75 76 77
93 90 90 90 90 89 89 88 92 88 89 89 90 89 91 96 97 97 96 95 90 87 91 94 95 100 100 101 94 97 97 79 78 75 73 72 72 72 73 74 73 73 73
89 88 88 89 88 89 89 87 89 89 87 91 93 89 88 95 94 96 95 95 94 90 87 96 97 96 95 96 95 95 96 82 83 76 74 72 71 72 72 72 72 71 72
86 88 88 87 88 88 88 86 88 89 87 88 89 88 88 89 92 95 95 94 93 93 88 93 96 97 91 91 93 94 97 97 99 77 76 73 72 71 71 71 70 70 71
87 88 88 87 88 89 88 86 87 91 88 87 88 88 88 92 87 88 92 89 90 90 89 84 90 93 92 92 92 91 96 101 99 83 78 74 72 71 70 69 68 68 68
88 89 87 88 88 89 87 87 88 87 88 89 89 88 88 88 86 89 89 90 93 93 91 90 89 94 95 95 93 93 93 95 101 86 81 74 74 74 71 69 67 67 65
87 88 88 88 88 90 89 90 89 88 88 90 89 89 88 88 86 87 88 86 88 87 89 88 90 93 94 95 95 94 93 97 96 100 92 85 79 77 74 71 70 70 65
87 88 88 88 88 87 91 88 88 88 88 88 88 89 90 86 75 77 87 86 84 86 89 89 89 92 92 90 88 93 92 94 94 97 97 97 99 100 99 81 79 73 67
85 86 86 87 88 87 63 65 73 86 88 87 87 88 90 80 79 70 69 69 74 81 82 85 88 88 85 88 92 91 90 89 86 97 93 92 98 97 100 101 72 71 67
82 82 83 80 75 76 61 62 66 87 86 87 85 86 86 83 77 83 76 68 69 67 69 80 81 84 82 84 84 84 84 85 86 90 90 91 96 95 99 101 71 73 68
79 79 74 75 75 71 59 61 66 81 76 74 75 74 72 71 69 71 82 85 86 87 84 85 83 84 84 83 82 83 81 83 86 92 94 89 96 94 98 99 80 71 67
74 70 73 74 70 66 56 57 71 82 79 78 77 76 77 76 58 58 78 80 81 84 77 68 67 66 66 66 70 83 85 76 83 89 94 92 93 93 95 96 98 69 65
66 66 70 69 62 66 54 55 65 84 79 83 80 76 60 64 56 54 74 77 77 80 79 81 83 82 75 81 66 80 83 75 78 78 88 83 86 84 85 93 97 97 98

GFSMA_sfc_temp_111.txt.gz
Temp
91 94 93 94 93 91 96 92 96 95 95 97 98 98 97 97 99 99 93 82 82 81 82 82 82 82 82 82 83 83 83 82 82 82 82 82 82 81 81 81 81 81 81
91 92 93 94 95 93 92 91 93 96 97 97 96 97 97 97 96 98 96 89 82 82 82 82 82 82 82 83 83 83 83 82 82 82 82 81 81 81 81 81 81 81 80
91 91 93 94 95 93 93 94 95 97 98 98 95 97 97 97 96 95 100 97 89 81 83 83 83 82 83 83 83 83 83 82 82 82 81 81 81 81 81 81 81 81 80
90 90 93 94 94 94 94 97 96 97 99 98 96 98 97 98 96 96 98 100 100 97 84 83 83 83 83 83 84 84 83 82 82 81 81 81 81 81 81 81 81 81 80
91 94 96 93 90 92 96 95 96 93 96 98 98 98 98 98 97 100 96 98 97 101 100 82 83 82 84 85 85 83 83 82 82 81 81 81 81 81 81 81 80 80 80
91 92 94 92 90 94 94 92 89 96 96 96 98 98 99 99 99 98 98 101 99 98 101 97 97 92 82 84 84 83 83 82 82 82 82 81 81 81 80 80 80 80 80
91 90 87 92 91 81 87 93 91 91 95 96 95 96 96 98 98 100 102 103 99 102 102 101 99 99 93 83 83 83 83 83 83 82 82 81 81 80 80 79 79 79 79
91 92 87 91 83 92 90 91 90 93 96 96 87 94 89 94 99 102 101 101 101 104 102 101 100 98 98 100 95 84 83 82 83 83 82 81 80 80 79 79 78 79 79
92 90 90 88 91 91 91 91 92 90 89 94 92 85 88 84 93 98 97 100 98 101 102 101 101 100 100 100 97 90 82 80 81 82 82 81 80 80 80 80 79 78 79
92 91 91 90 89 75 90 92 95 91 89 91 96 96 92 91 82 89 98 98 100 101 100 101 105 102 101 102 91 84 81 79 79 80 81 81 80 80 81 81 80 79 79
92 93 90 89 89 88 91 90 91 89 94 87 86 95 92 97 95 92 88 94 99 102 102 102 103 104 102 101 101 88 81 78 78 79 79 79 80 81 81 82 81 81 80
91 91 92 90 90 90 90 91 91 90 89 90 91 90 91 79 92 92 92 91 93 97 102 104 102 102 102 101 93 83 82 79 78 77 76 77 78 79 81 81 81 81 81
85 89 90 89 90 89 91 91 89 89 91 90 89 92 96 94 96 94 94 85 92 97 98 102 102 101 104 102 99 87 86 79 77 76 74 75 76 77 78 79 79 79 80
91 87 90 91 90 91 91 90 91 92 92 92 90 89 93 97 97 97 94 92 87 86 78 94 98 102 101 100 91 86 96 80 77 76 75 73 74 74 76 76 76 75 76
91 92 92 90 91 90 91 90 90 90 90 90 91 90 91 96 98 98 97 96 91 85 89 91 94 97 100 99 93 96 96 83 80 78 76 73 73 73 74 74 74 73 73
89 89 91 91 90 90 91 89 90 90 89 91 93 91 89 93 95 96 97 96 95 91 86 95 96 97 95 97 95 95 94 82 83 80 77 75 74 74 73 73 73 72 72
89 88 89 89 89 89 90 88 87 87 89 89 89 89 89 89 91 94 96 96 94 94 89 92 94 95 91 93 94 95 95 96 99 76 75 77 74 73 73 72 71 71 71
89 88 89 88 88 89 86 88 88 89 87 87 89 89 89 93 89 89 92 89 91 90 89 83 87 92 92 95 94 92 96 101 99 83 78 76 75 74 72 70 70 70 69
89 91 89 88 88 89 89 88 88 88 88 88 87 89 89 90 87 88 88 89 92 92 88 89 87 93 94 96 95 94 94 95 101 85 82 77 76 74 71 70 71 70 67
88 89 89 89 89 90 90 89 89 89 89 91 91 90 89 89 88 87 88 87 89 86 89 89 90 92 94 92 90 92 93 97 96 100 93 86 82 79 75 71 72 73 67
89 89 89 89 89 90 85 82 89 90 89 89 91 91 91 87 76 77 87 84 83 85 88 87 88 90 91 88 87 92 92 93 92 95 96 96 97 99 98 74 79 74 69
87 88 89 89 89 74 63 64 70 88 90 87 87 89 91 83 82 72 71 70 73 80 80 81 85 85 82 86 88 88 86 85 82 94 90 90 98 98 100 101 75 72 71
83 82 82 77 75 72 60 62 66 83 87 85 83 83 85 81 79 83 76 70 69 68 69 77 78 81 80 80 80 79 80 82 82 88 89 88 97 96 100 100 73 71 70
77 76 75 75 75 70 58 60 63 81 77 78 79 79 78 78 69 70 77 84 86 87 85 83 82 82 82 82 81 82 81 79 85 90 87 77 91 90 91 97 75 70 68
69 69 71 71 70 65 56 58 69 83 80 78 77 75 78 75 58 58 78 79 80 83 74 69 70 68 67 67 70 81 82 76 75 80 89 85 88 89 90 92 93 70 67
71 70 67 67 63 66 55 56 65 86 82 83 79 72 60 65 57 56 73 77 75 78 78 80 83 82 73 78 67 76 76 75 75 77 85 81 84 84 81 89 92 92 89

GFSMA_sfc_temp_114.txt.gz
Temp
85 85 85 76 75 75 73 79 81 88 88 90 91 89 90 90 90 87 81 81 82 82 82 82 82 82 82 82 83 83 83 82 82 82 82 82 81 81 81 81 80 80 80
85 86 85 86 76 77 76 80 84 84 85 89 88 90 89 89 89 86 84 80 82 82 82 83 83 83 83 83 83 83 82 82 82 82 81 81 81 81 81 81 81 81 81
88 84 84 84 84 86 88 87 86 88 87 90 87 89 89 88 89 89 87 84 82 82 82 83 83 83 83 83 83 83 82 82 82 82 81 81 81 81 81 81 80 80 80
89 86 86 81 86 84 85 84 84 84 85 86 85 86 87 88 88 89 90 89 85 88 82 82 83 83 83 84 84 83 83 82 82 81 81 81 81 81 81 81 80 80 80
88 85 83 86 87 82 83 84 81 83 80 85 89 88 88 86 87 93 89 89 90 88 86 81 82 82 84 85 84 84 83 82 82 81 81 81 81 81 80 80 80 80 80
89 83 86 86 80 80 79 81 83 84 85 82 89 91 88 88 87 87 89 93 89 90 89 86 81 83 82 84 84 84 84 83 82 82 81 81 80 80 80 79 79 79 79
89 86 83 80 70 74 81 80 80 82 84 80 84 84 85 89 90 88 89 90 89 91 91 89 87 87 85 82 83 83 84 84 83 82 81 80 80 80 79 79 78 79 79
88 87 82 79 73 75 85 82 78 82 83 82 79 79 77 81 87 92 89 92 91 91 92 92 90 89 88 88 84 84 83 82 82 82 82 81 80 80 79 79 78 78 78
88 88 87 80 76 76 82 84 84 82 80 79 83 79 73 74 80 85 87 88 88 88 90 90 92 89 89 89 85 83 81 79 81 82 82 81 80 79 80 79 79 78 78
85 88 88 81 73 71 76 83 88 82 80 79 80 82 73 74 75 77 83 85 87 91 90 88 93 92 91 86 85 83 80 79 80 81 81 81 80 80 80 80 79 79 79
85 89 86 87 76 74 78 84 84 82 80 76 76 83 81 81 76 80 76 79 83 87 88 88 91 90 93 91 86 81 82 80 79 79 80 80 80 80 81 81 80 79 79
86 87 86 84 84 79 81 85 85 84 81 74 74 81 71 69 68 75 69 72 78 83 89 90 89 89 90 87 90 83 82 80 79 78 77 77 79 79 81 81 81 80 80
82 82 83 84 84 82 83 86 85 84 84 82 82 82 72 68 71 71 69 66 67 70 70 73 73 82 86 85 85 84 85 79 79 77 75 76 76 77 78 79 79 79 78
84 84 84 84 85 85 86 86 84 84 84 85 85 83 83 84 85 84 81 75 76 72 66 69 73 75 86 86 85 85 85 79 79 77 75 75 75 75 76 76 76 75 75
84 84 86 85 86 85 87 86 84 84 82 85 83 84 83 83 83 85 84 83 79 73 72 72 73 87 86 86 85 88 86 83 77 79 79 76 75 74 75 75 74 73 73
75 74 83 84 84 84 86 84 82 82 85 85 85 80 84 83 83 85 83 84 83 79 75 81 81 84 86 91 88 87 87 81 80 78 78 78 75 75 74 74 73 72 72
76 79 85 86 84 85 85 84 84 82 82 83 84 83 84 84 82 82 82 81 80 80 76 79 81 82 82 82 86 86 87 85 86 79 80 79 75 75 74 73 72 72 71
82 81 84 85 86 86 83 84 83 84 83 83 84 83 84 88 82 82 81 79 81 81 79 76 80 81 81 83 84 84 88 95 87 82 79 77 75 75 73 71 71 72 70
84 85 83 84 82 83 82 81 83 84 83 84 83 81 81 82 81 81 81 80 81 82 80 78 77 80 82 84 84 83 84 84 93 86 82 79 76 73 73 70 71 72 69
83 82 82 83 83 83 82 82 82 81 83 84 84 86 86 83 81 82 81 79 80 79 79 79 77 80 80 82 81 79 80 82 83 91 87 84 80 79 79 72 72 73 68
85 84 82 82 83 76 70 69 72 76 81 82 84 83 83 77 75 76 79 79 79 78 77 77 77 79 78 79 77 80 79 80 81 82 84 85 87 89 89 71 75 74 70
82 83 82 80 74 71 63 64 69 75 78 74 80 81 75 73 75 71 71 72 71 75 75 74 76 75 76 77 77 74 75 75 74 81 80 80 86 85 83 83 77 75 68
79 77 75 74 68 65 60 61 67 80 79 77 75 75 75 72 70 73 73 74 72 68 68 74 74 74 74 74 76 75 75 75 75 79 77 77 82 83 86 84 72 69 68
71 70 71 70 68 65 58 60 64 78 78 77 75 77 73 69 63 65 71 78 78 79 77 77 76 76 76 77 75 76 75 75 77 75 75 74 80 79 82 85 73 69 68
66 65 66 66 65 59 57 58 66 78 75 70 70 69 70 67 59 59 73 73 73 74 76 70 69 67 67 66 67 72 73 72 71 76 74 75 77 78 79 80 82 75 68
62 61 63 63 61 59 57 57 63 71 74 73 68 65 60 62 58 57 66 70 67 68 69 71 74 76 73 72 67 75 72 70 72 71 75 71 73 75 71 78 80 80 81

GFSMA_sfc_temp_117.txt.gz
Temp
73 74 73 72 72 73 72 74 74 78 79 84 83 85 82 80 77 76 72 81 80 81 82 82 82 82 82 82 82 82 82 82 82 82 82 82 81 81 80 80 80 81 80
77 78 73 75 72 72 73 76 77 78 79 81 82 83 84 82 80 77 74 75 81 81 82 82 82 82 83 83 83 83 82 82 82 82 81 81 80 80 80 80 81 81 80
81 76 73 76 74 74 77 79 80 80 79 82 82 82 83 84 82 79 77 74 77 81 82 82 82 82 82 83 83 83 82 82 82 81 81 81 81 81 80 80 80 80 80
80 76 76 74 77 78 80 78 80 80 78 77 75 79 80 81 84 81 80 79 77 81 80 82 82 82 82 83 83 83 82 82 81 81 81 81 81 80 80 80 80 80 80
81 77 76 75 75 76 73 73 77 77 77 77 80 78 79 80 82 87 82 81 79 80 78 80 81 81 83 85 84 84 83 82 81 81 81 81 80 80 80 79 79 79 79
82 79 75 71 71 72 74 75 78 77 78 78 84 84 79 79 80 79 83 86 82 82 81 80 78 80 81 83 83 83 84 83 82 81 81 80 80 80 79 79 79 78 78
82 77 72 75 71 71 71 75 75 77 77 77 76 76 77 80 80 80 77 82 83 85 84 81 79 79 81 81 82 83 84 83 82 82 81 80 80 79 78 78 78 78 78
80 76 74 72 69 71 73 76 76 75 75 72 70 71 71 72 79 82 79 84 80 83 82 86 85 84 81 79 79 82 82 82 82 83 82 81 80 79 79 78 77 78 78
81 77 75 72 71 71 70 73 76 75 73 73 73 71 67 69 71 78 80 81 81 78 82 84 86 86 85 82 81 81 81 79 82 83 82 81 80 79 79 78 78 77 77
81 81 76 73 72 68 71 72 77 76 74 70 73 75 69 72 68 71 77 72 75 77 74 73 80 87 82 81 82 79 80 79 80 82 81 81 80 80 80 79 78 78 77
80 82 78 75 72 71 74 73 78 74 70 68 69 70 71 69 69 65 65 69 67 75 72 72 73 74 79 79 78 79 80 80 80 80 79 80 80 81 81 81 80 79 78
77 79 80 76 75 75 73 75 76 77 72 67 68 71 68 68 67 67 66 65 64 69 70 70 69 73 77 78 85 81 82 79 78 79 77 77 78 80 81 82 81 80 79
74 76 76 75 75 76 77 77 77 77 75 73 74 72 69 67 68 69 66 64 64 69 67 68 69 76 77 75 76 80 82 78 77 77 76 76 76 77 78 79 79 78 78
75 77 77 77 78 78 79 77 77 76 77 76 76 75 75 74 68 68 66 64 63 66 65 67 71 73 73 79 81 84 82 79 80 77 76 75 75 76 76 76 76 75 75
77 75 75 77 79 78 79 78 76 76 77 77 76 76 75 76 76 74 70 76 74 66 68 70 70 80 79 81 82 82 83 81 77 75 75 75 74 75 75 74 73 73 73
73 73 74 74 77 79 79 77 75 76 76 77 77 77 76 76 77 77 76 75 75 76 69 73 72 76 80 83 84 83 84 79 78 77 78 77 75 76 75 73 73 72 72
72 72 74 74 77 78 78 77 76 77 76 75 76 76 77 77 75 75 75 74 74 76 70 73 75 77 79 80 84 83 84 82 82 80 78 75 74 74 74 73 73 72 70
71 75 75 76 77 77 77 76 77 77 76 75 76 76 76 81 76 75 74 74 74 74 72 70 73 75 76 79 79 81 84 88 82 81 75 73 75 73 72 72 72 71 70
75 76 76 76 77 77 77 76 76 76 77 76 75 76 79 79 77 73 74 71 73 73 72 71 71 73 75 78 76 77 78 79 86 81 79 77 76 75 74 72 71 71 68
76 76 76 76 76 74 73 74 75 76 75 75 75 77 75 76 77 74 73 73 73 72 71 70 70 72 71 75 74 73 75 78 78 84 82 78 75 76 76 71 70 69 68
75 76 75 73 70 67 66 68 73 74 72 71 71 74 71 72 71 70 73 71 72 71 71 70 69 69 70 71 71 72 71 73 77 75 79 80 82 82 79 75 77 72 70
73 73 70 68 65 64 64 64 67 71 72 71 70 71 69 68 68 69 70 70 69 71 70 69 69 69 69 70 71 71 70 70 69 75 75 76 79 78 75 77 74 70 68
71 69 66 63 58 58 60 61 66 70 71 68 70 70 67 66 64 65 68 71 70 69 68 69 69 69 69 70 70 68 69 69 69 72 71 70 75 78 81 80 71 70 69
68 65 64 60 59 60 59 60 65 70 65 66 66 64 61 60 61 62 68 69 69 70 66 70 67 68 69 70 68 69 70 70 71 71 68 66 73 75 78 77 74 71 69
62 62 62 62 60 60 58 60 67 67 64 61 63 64 63 61 60 61 65 64 64 65 69 67 67 66 66 66 67 70 66 64 64 67 70 67 68 70 71 72 80 71 68
60 59 60 61 59 60 57 58 62 68 62 62 62 61 61 59 57 57 61 61 60 61 62 67 72 72 70 70 68 66 65 63 62 61 68 64 64 66 63 70 73 75 76

GFSMA_sfc_temp_123.txt.gz
Temp
70 71 71 70 69 70 70 72 72 72 73 75 76 75 75 74 72 71 70 80 80 81 82 83 83 82 82 82 82 82 82 82 82 82 81 81 81 81 81 81 81 81 81
70 71 70 71 70 70 70 72 72 73 74 75 76 76 75 74 73 72 71 72 81 81 81 82 83 83 83 83 83 83 82 82 82 82 81 80 80 81 80 81 80 81 80
71 71 70 71 71 71 72 73 74 74 74 76 76 76 75 75 74 73 73 71 73 80 81 82 82 82 82 83 83 83 82 82 82 82 81 80 81 81 81 80 80 80 79
72 71 71 71 73 72 71 72 72 73 73 71 71 74 75 75 75 75 74 74 73 76 78 81 81 81 82 83 84 83 82 82 81 81 81 81 81 81 80 79 79 79 79
74 72 71 72 72 71 72 72 72 72 72 72 75 74 74 73 75 80 76 76 75 75 75 76 79 80 82 84 84 83 83 82 82 81 81 81 80 80 79 79 78 78 78
74 71 71 71 70 70 71 72 72 72 72 72 78 79 74 74 74 74 75 79 76 77 75 77 72 73 79 80 82 82 83 82 82 81 81 80 80 79 79 78 78 78 78
75 71 69 70 70 71 71 73 71 72 70 70 72 72 72 74 74 71 72 73 76 77 76 73 72 72 74 79 80 81 82 83 83 82 81 80 79 79 78 78 77 77 77
75 73 71 68 70 71 72 72 72 70 70 69 69 68 68 71 73 73 72 76 74 74 76 77 76 76 75 75 77 81 81 81 82 82 82 80 79 79 78 78 77 77 76
75 74 71 69 70 68 71 71 73 72 69 69 69 69 65 66 66 71 71 72 72 72 73 75 77 77 75 76 79 79 79 78 80 81 82 81 80 79 79 79 78 77 76
75 74 73 71 70 67 71 72 73 71 69 68 70 70 68 67 67 66 70 70 70 73 71 73 76 77 76 77 79 79 77 77 78 80 81 81 81 80 80 80 79 77 77
74 75 74 72 69 69 72 73 72 69 69 68 68 68 68 67 66 65 64 68 68 69 71 71 72 73 75 74 74 76 78 77 78 79 79 80 80 81 81 81 80 79 78
72 74 74 71 70 71 72 73 72 71 68 68 69 68 67 67 66 65 63 62 62 66 69 70 70 70 72 73 79 79 78 77 77 77 76 76 78 79 80 81 81 80 79
70 72 73 72 71 72 73 73 72 72 69 70 71 69 67 67 67 65 64 63 62 65 67 69 70 69 72 73 74 78 78 75 75 74 73 75 76 76 78 79 80 79 78
72 74 73 73 73 74 74 73 72 72 72 72 72 71 70 68 67 67 67 65 65 64 65 70 68 71 72 74 77 78 78 75 74 72 73 73 73 74 75 76 76 76 75
73 73 74 74 74 74 74 73 72 72 72 72 72 72 71 70 69 68 67 66 68 64 65 69 68 74 76 76 78 77 78 75 73 73 72 72 72 73 73 73 73 73 73
73 73 73 72 74 74 74 73 72 72 72 72 72 72 71 71 71 70 69 68 67 67 65 68 71 72 74 78 78 76 78 76 74 72 71 70 71 72 71 70 70 71 72
71 71 71 72 73 74 74 73 72 72 72 72 72 72 72 71 71 70 70 70 69 68 66 69 69 72 73 73 75 75 77 77 76 73 71 70 70 70 69 69 69 70 70
71 70 70 70 73 73 73 72 73 74 73 72 73 72 73 76 71 70 70 70 69 69 68 67 68 70 71 73 74 73 76 80 75 76 70 70 69 69 68 67 66 66 66
71 71 70 70 72 73 73 73 73 74 73 73 73 72 72 72 72 70 70 69 69 70 69 68 67 68 69 71 71 71 72 72 78 76 72 70 70 69 68 67 66 64 63
70 69 70 72 73 73 73 73 73 72 72 72 72 71 72 72 72 71 71 70 70 69 69 67 67 67 68 70 69 68 68 70 70 77 75 72 72 72 69 67 67 66 62
71 72 71 70 70 70 68 68 70 72 71 71 69 69 68 69 68 68 70 69 69 68 67 67 67 67 67 66 66 68 67 68 69 72 68 74 74 73 73 71 70 67 64
70 69 68 67 66 66 63 64 66 69 70 69 67 66 67 68 69 67 67 66 68 68 67 67 65 64 64 65 65 65 65 65 66 70 63 67 70 70 69 70 67 65 63
67 65 63 63 62 61 61 61 65 68 69 67 65 64 65 66 67 68 66 66 65 65 65 65 63 62 62 64 63 64 64 64 61 63 60 62 67 64 70 70 65 64 61
64 62 61 63 62 61 61 60 65 67 66 64 63 61 61 62 63 67 67 66 64 64 63 65 63 62 62 62 63 64 63 62 64 58 61 56 60 60 64 64 65 64 61
60 58 56 57 59 60 58 61 64 62 60 60 60 61 62 60 61 63 63 62 62 64 63 62 62 62 62 62 62 62 56 57 55 56 60 54 56 55 58 61 64 63 60
54 55 55 56 56 57 57 59 60 58 56 57 59 60 60 59 58 60 60 61 60 58 60 61 62 62 61 61 61 58 55 53 51 49 55 52 54 54 51 56 56 60 60